Wind_Speed
18 19 19 20 20 21 21 21 21 21 22 22 23 23 24 24 23 22 23 23 22 23 22 22 23 22 22 22 23 23 22 22 23 23 23 22 22 22
21 21 22 22 23 23 23 23 23 24 25 25 26 26 26 26 26 25 25 25 25 25 24 24 25 25 24 23 24 25 25 25 25 25 25 24 23 23
22 23 24 24 24 25 25 25 25 25 26 27 27 28 28 28 28 29 28 28 28 28 27 26 26 25 25 25 26 26 27 28 28 28 27 25 25 25
23 24 24 24 25 25 26 27 28 28 28 28 28 29 30 31 31 31 31 30 30 31 31 29 28 27 27 28 28 28 29 29 30 30 29 28 28 27
23 23 24 25 25 26 26 27 29 29 29 29 30 31 31 32 32 33 33 32 32 32 31 30 30 30 29 29 30 31 31 31 32 32 31 31 30 30
23 23 24 24 25 26 27 27 28 29 30 30 31 32 32 33 33 34 34 33 33 33 33 32 32 31 31 31 32 32 33 34 34 34 33 33 32 32
25 25 25 26 27 27 28 28 29 29 30 31 31 32 32 33 33 34 34 34 34 33 33 33 33 32 32 32 33 33 34 34 35 35 35 35 35 34
27 27 27 27 28 28 29 30 30 30 31 31 31 31 31 32 33 34 35 35 34 35 34 34 34 34 33 32 33 33 33 34 35 36 36 36 36 35
28 28 28 29 29 30 30 30 31 31 31 30 30 30 30 30 31 32 33 33 33 33 34 34 34 34 33 33 33 33 33 34 34 35 36 36 35 35
29 29 29 29 29 30 30 31 30 30 30 30 30 30 30 30 30 31 32 32 32 33 34 34 34 34 34 32 32 32 34 34 34 35 35 35 35 35
29 29 29 30 29 29 30 31 31 30 30 29 29 29 29 29 29 29 30 31 31 32 33 34 34 34 33 33 34 33 34 34 33 33 34 33 34 34
29 29 29 29 29 29 30 31 31 30 30 30 29 29 28 28 28 28 28 29 30 31 32 32 32 32 31 32 33 34 34 33 33 32 32 33 33 33
30 30 30 30 29 30 30 31 31 30 30 30 29 29 29 28 28 28 28 29 30 30 31 32 32 32 32 31 31 32 33 32 32 32 33 33 32 31
30 30 30 30 29 30 30 31 31 31 30 31 29 28 28 28 27 27 28 28 28 29 30 31 31 31 31 31 31 31 32 32 32 33 33 32 31 30
30 31 31 30 30 30 31 31 31 31 31 30 29 28 28 28 27 27 27 28 28 28 28 29 29 29 30 30 30 30 31 32 32 33 32 31 31 31
30 31 30 30 30 31 30 30 30 29 29 29 28 27 27 27 27 27 27 27 27 26 27 28 28 28 29 29 29 29 29 30 31 31 31 30 30 30
30 30 30 30 30 30 30 29 28 28 27 27 25 25 25 26 27 26 25 25 25 25 25 26 27 27 27 27 27 27 28 30 30 31 30 29 29 29
30 30 30 30 29 28 28 28 27 26 26 25 25 25 25 25 25 25 24 23 23 23 24 25 25 25 26 25 26 26 27 28 27 28 29 29 28 28
30 29 29 29 28 27 27 26 25 26 25 25 25 24 24 24 23 23 23 23 23 22 23 23 23 23 24 25 26 26 26 25 26 26 27 27 27 27
29 29 28 28 27 26 25 25 25 24 24 24 23 23 23 23 22 22 22 22 23 23 23 23 24 23 23 23 24 24 25 25 25 25 25 26 27 27
28 28 27 27 26 25 24 24 23 23 23 22 21 21 22 22 22 22 22 21 21 22 22 23 24 24 24 23 23 23 24 24 24 24 25 25 26 27
26 26 26 25 25 24 23 23 22 23 22 21 21 20 20 21 20 20 20 20 21 21 22 23 23 23 23 23 23 23 24 24 24 25 25 25 25 26
25 25 25 24 23 22 22 22 21 21 21 21 21 21 21 20 20 20 19 20 20 20 21 22 22 22 22 23 23 23 24 24 24 24 24 24 24 25
Wind_Direction
293 292 290 287 285 284 283 279 274 272 272 272 272 271 271 270 268 267 267 265 263 262 259 259 256 254 254 253 252 253 253 254 253 251 250 252 254 255
292 291 289 287 285 284 281 279 276 274 272 272 272 272 271 270 268 268 267 265 266 264 262 261 259 255 253 253 252 253 254 254 254 253 252 253 254 255
294 291 289 286 284 282 281 280 280 278 276 274 272 271 270 270 269 269 267 267 267 263 264 263 260 256 253 252 252 253 254 255 254 253 252 253 254 256
296 293 291 288 286 284 282 281 280 278 277 276 274 272 271 270 269 269 267 266 265 264 263 260 260 259 256 254 252 253 252 253 252 252 252 252 254 255
299 296 294 291 289 287 285 283 282 280 277 276 274 274 272 270 268 267 266 266 265 263 260 259 260 260 259 256 255 254 253 252 251 252 252 253 253 254
300 298 296 294 292 291 289 287 285 283 280 278 275 274 272 270 268 266 266 265 265 265 261 260 260 258 258 257 256 256 254 252 252 252 252 252 252 252
299 298 296 294 293 291 290 288 286 284 283 282 279 277 274 271 269 267 265 265 265 266 263 263 262 259 256 256 256 256 254 251 251 251 251 251 251 252
298 297 296 294 293 292 291 289 287 285 284 282 280 278 276 273 271 268 266 265 264 264 264 263 263 261 256 254 254 255 255 252 252 251 252 252 252 252
299 298 297 296 295 293 292 291 289 287 285 284 282 280 277 275 272 269 268 267 265 263 262 262 262 259 256 254 253 254 255 255 254 252 252 252 252 252
299 297 297 297 297 294 293 292 291 289 287 285 283 282 279 278 276 271 269 268 266 264 263 263 261 260 256 254 255 255 253 252 253 253 253 253 251 251
298 298 297 297 296 294 294 293 292 291 289 287 286 285 283 281 279 274 271 270 267 264 263 262 261 260 257 255 254 255 255 253 252 253 254 254 254 252
300 300 299 298 297 296 295 294 293 292 290 289 288 286 284 281 278 276 275 273 269 266 263 261 260 258 256 254 255 255 254 253 253 253 253 253 254 252
303 303 302 300 298 297 296 296 295 293 291 291 287 284 284 281 279 279 277 276 271 266 264 262 260 259 257 255 254 255 255 254 254 254 253 253 252 252
302 303 302 300 299 298 296 295 294 294 292 292 290 286 282 280 280 280 279 277 273 269 265 263 262 261 259 257 255 254 253 253 253 254 254 252 251 251
303 303 302 301 301 299 297 294 293 292 292 291 290 287 284 280 279 279 279 276 273 270 267 263 261 260 258 257 255 255 253 252 253 254 252 252 249 248
305 304 302 301 301 301 298 296 293 292 292 291 288 285 283 281 280 280 279 276 274 271 267 264 261 260 258 256 255 255 253 253 252 253 251 249 247 246
306 305 303 302 301 300 298 296 294 292 292 291 288 285 283 283 283 282 279 276 273 270 266 263 261 260 257 255 255 254 252 251 251 249 247 248 247 247
306 306 304 304 303 302 299 297 295 294 294 291 290 289 286 283 282 280 279 277 273 270 266 263 261 260 257 256 256 255 253 250 248 248 247 247 246 245
306 306 306 306 304 302 301 298 296 296 295 294 292 290 288 285 282 280 277 278 273 269 264 260 260 259 257 255 255 254 252 249 248 248 247 245 243 242
307 308 308 307 305 303 301 300 299 298 297 297 295 292 290 286 284 281 279 277 273 270 264 260 259 258 256 256 254 251 249 249 248 247 247 245 243 242
309 310 309 307 305 304 303 301 300 300 298 297 296 294 291 288 285 282 281 278 274 270 265 262 262 260 258 258 255 251 249 249 249 248 248 247 245 243
310 311 311 309 307 305 305 304 303 301 299 297 296 295 293 291 288 284 281 278 276 272 267 265 264 263 261 260 256 252 250 250 251 251 248 246 245 244
311 311 311 311 309 307 306 306 305 304 301 298 296 296 296 293 290 287 283 279 278 274 269 266 263 262 261 259 256 253 251 251 250 249 248 248 246 244
Height
5835 5833 5832 5830 5828 5827 5825 5825 5824 5823 5822 5821 5820 5819 5819 5818 5818 5818 5818 5817 5816 5817 5817 5817 5818 5818 5818 5819 5820 5822 5822 5823 5824 5824 5825 5826 5827 5828
5829 5827 5825 5824 5822 5820 5819 5817 5816 5816 5815 5814 5813 5812 5811 5811 5810 5810 5810 5810 5809 5810 5810 5810 5810 5811 5811 5812 5813 5815 5816 5817 5817 5818 5819 5820 5821 5822
5822 5820 5819 5817 5815 5813 5811 5810 5809 5808 5807 5806 5805 5804 5803 5802 5802 5802 5802 5801 5801 5802 5802 5802 5802 5802 5803 5804 5805 5807 5808 5809 5810 5811 5812 5813 5814 5815
5816 5814 5811 5809 5807 5805 5804 5802 5801 5800 5799 5798 5797 5795 5795 5794 5793 5793 5793 5793 5793 5793 5792 5793 5793 5793 5795 5796 5797 5798 5800 5801 5802 5803 5804 5805 5806 5808
5809 5806 5804 5802 5800 5797 5795 5794 5792 5790 5789 5788 5787 5786 5785 5784 5784 5783 5783 5783 5783 5783 5783 5783 5784 5785 5786 5786 5788 5789 5791 5792 5793 5794 5795 5796 5798 5799
5802 5799 5796 5794 5792 5790 5787 5785 5783 5781 5780 5778 5777 5776 5775 5774 5774 5773 5773 5773 5773 5773 5773 5774 5775 5775 5776 5777 5778 5779 5781 5782 5784 5785 5786 5787 5789 5790
5794 5791 5789 5786 5783 5781 5779 5776 5774 5772 5770 5769 5767 5766 5765 5764 5763 5763 5763 5763 5763 5763 5763 5764 5765 5765 5766 5767 5768 5769 5770 5772 5773 5775 5776 5777 5779 5780
5787 5784 5781 5778 5775 5772 5769 5767 5764 5762 5761 5759 5757 5756 5754 5753 5753 5752 5752 5753 5754 5754 5753 5754 5754 5755 5756 5757 5758 5758 5759 5761 5762 5764 5765 5767 5768 5770
5778 5775 5772 5769 5766 5763 5760 5757 5755 5752 5750 5749 5747 5746 5744 5743 5742 5741 5741 5741 5742 5742 5743 5744 5744 5745 5745 5746 5747 5748 5750 5751 5752 5753 5755 5756 5758 5760
5770 5767 5764 5760 5757 5754 5751 5748 5744 5742 5740 5739 5737 5736 5734 5732 5731 5730 5730 5731 5732 5732 5732 5733 5734 5734 5735 5736 5737 5738 5739 5740 5741 5743 5744 5746 5748 5749
5762 5758 5755 5751 5748 5745 5742 5739 5736 5733 5731 5729 5727 5726 5724 5722 5721 5721 5721 5721 5721 5721 5721 5722 5723 5723 5725 5726 5727 5727 5728 5730 5731 5732 5734 5736 5737 5739
5753 5749 5746 5743 5739 5736 5733 5730 5727 5724 5721 5719 5718 5716 5714 5713 5712 5711 5711 5710 5710 5711 5710 5711 5712 5713 5714 5716 5716 5717 5718 5719 5721 5722 5724 5725 5727 5729
5745 5741 5738 5734 5731 5727 5724 5721 5718 5715 5712 5710 5708 5707 5705 5704 5703 5702 5701 5701 5700 5700 5700 5700 5702 5702 5704 5706 5707 5707 5708 5709 5711 5712 5714 5715 5717 5719
5737 5733 5729 5725 5722 5718 5715 5712 5709 5706 5704 5701 5700 5698 5696 5695 5694 5693 5692 5691 5691 5690 5690 5690 5691 5693 5694 5695 5696 5698 5699 5700 5701 5703 5704 5706 5707 5710
5728 5724 5721 5717 5713 5709 5706 5703 5700 5697 5695 5693 5691 5689 5687 5686 5684 5684 5683 5682 5681 5681 5680 5681 5681 5682 5684 5685 5687 5688 5689 5690 5692 5693 5695 5697 5699 5701
5719 5716 5712 5708 5704 5701 5697 5694 5691 5688 5686 5684 5682 5680 5678 5676 5675 5674 5673 5672 5672 5672 5671 5671 5672 5673 5674 5675 5677 5678 5680 5681 5682 5684 5686 5688 5689 5692
5711 5707 5703 5700 5696 5692 5688 5685 5682 5680 5677 5675 5673 5671 5669 5668 5666 5665 5664 5663 5663 5663 5663 5663 5663 5664 5665 5667 5668 5669 5670 5672 5673 5675 5677 5679 5681 5684
5703 5699 5695 5691 5688 5684 5681 5677 5674 5672 5669 5667 5665 5663 5661 5660 5658 5657 5656 5655 5655 5655 5655 5655 5655 5656 5657 5658 5660 5660 5662 5663 5665 5666 5668 5671 5673 5675
5695 5691 5687 5683 5680 5676 5673 5670 5667 5664 5662 5659 5657 5655 5653 5652 5650 5649 5648 5647 5647 5647 5647 5647 5647 5648 5649 5650 5651 5652 5653 5655 5656 5658 5660 5662 5665 5667
5687 5683 5679 5676 5672 5669 5666 5663 5660 5657 5655 5652 5650 5648 5646 5644 5643 5642 5641 5640 5639 5639 5639 5639 5640 5640 5641 5642 5643 5644 5645 5647 5648 5650 5652 5655 5657 5659
5679 5676 5672 5668 5665 5661 5659 5656 5653 5651 5648 5646 5643 5641 5639 5637 5636 5635 5634 5632 5632 5631 5632 5632 5632 5632 5633 5634 5636 5637 5638 5639 5641 5643 5645 5647 5650 5652
5672 5669 5665 5661 5658 5654 5652 5649 5646 5644 5641 5639 5636 5634 5632 5630 5629 5627 5626 5625 5625 5624 5624 5624 5625 5625 5625 5627 5628 5630 5631 5632 5634 5635 5638 5640 5642 5645
5666 5662 5658 5655 5651 5648 5645 5643 5640 5637 5634 5632 5630 5628 5625 5624 5622 5621 5619 5619 5618 5617 5617 5617 5617 5617 5618 5619 5620 5622 5623 5625 5626 5628 5630 5632 5635 5637